Location: Boiro
(42.6475°N, 8.8834°W)
Time: 02:23:34
(UTC+01:00)

Explorer 7 - Pass Details

Date: 07 December 2021
Orbit: 483 x 674 km, 50.3° (Epoch: 18 January)

Event Time Altitude Azimuth Distance (km) Brightness Sun altitude
Exits shadow 06:28:07 53° 49° (NE) 706 7.4 -25.7°
Drops below altitude 10° 06:31:22 10° 58° (ENE) 1,837 10.1 -25.1°
Sets 06:33:33 0° 59° (ENE) 2,701 11.1 -24.7°
